Illinois River (Oklahoma), Watts (07195500)

StateOklahomaLatestLow (568 cfs)
RiverIllinois RiverRatingObservedEstimated
Updated2026-05-10 16:30 (57 minutes ago)Flood - The river is flooding. Obstacles can be treacherous or deadly. The river should be avoided at this stage for casual trips and definitely for the inexperienced. Trips should be attempted only with protective gear and equipment.Flood(none)2413
Discharge568 cfs (median: 628 cfs)High - The river is high and potentially dangerous, especially for the young and / or inexperienced. Normal stream obstacles are sometimes difficult to navigate. Extended distances can be attempted, but canoe travel may not be advisable.High(none)1205
Height3.23 feetGood - Conditions are ideal for a canoe or kayak. Boats typically will drag on fewer than one-quarter of riffles, if at all, and portages are unnecessary or rare. Normal float lengths can be attempted without a problem.Good(none)622
TrendFalling (falling over 24 hours)Low - River is low but can still be floated. Some riffles are okay but most come with significant dragging and might need a portage. Float lengths should be reduced to accommodate low flow, dragging, and portages.Low(none)399
USGSExternal icon USGS Site (External icon Duck Duck Go Maps)Poor - River is too low to float comfortably. Most or all riffles will drag or must be portaged and some obstacles (such as slick shelf rock) cause undue problems. Avoid the river at this stage for casual paddling trips.Poor(none)189

Trending Data

Plot Image

Trips for Illinois River (Oklahoma), Watts (07195500)

DateStartEndDistanceConditionDischargeHeightFishingDetails

A total of 0 rows are displayed.

Condition Descriptions

Fishing Conditions

Fish Species

Notes

Classic Trip List

The classic River Trips application is still available for use. It is updated with the new system using a data retrofit. It is no longer maintained. The original River Trips application is no longer updated (as of 1 Dec 2016) but can be checked for errors or for the condition of the data before it was converted to the new system.

Gauge Data Table

ObservationHeightDischargeMaximum
Discharge
Minimum
Discharge
Mean
Discharge
P05P10P20P25P50
(Median)
P75P80P90P95
2026-05-10 16:30 3.23 568 13700 (1993) 144 (1964) 1220 164 187 325 403 628 1120 1300 2550 3400
2026-05-10 15:30 3.24 572 13700 (1993) 144 (1964) 1220 164 187 325 403 628 1120 1300 2550 3400
2026-05-10 14:30 3.24 572 13700 (1993) 144 (1964) 1220 164 187 325 403 628 1120 1300 2550 3400
2026-05-10 13:30 3.24 572 13700 (1993) 144 (1964) 1220 164 187 325 403 628 1120 1300 2550 3400
2026-05-10 12:30 3.25 576 13700 (1993) 144 (1964) 1220 164 187 325 403 628 1120 1300 2550 3400
2026-05-10 11:30 3.26 580 13700 (1993) 144 (1964) 1220 164 187 325 403 628 1120 1300 2550 3400
2026-05-10 10:30 3.27 585 13700 (1993) 144 (1964) 1220 164 187 325 403 628 1120 1300 2550 3400
2026-05-10 09:30 3.27 585 13700 (1993) 144 (1964) 1220 164 187 325 403 628 1120 1300 2550 3400
2026-05-10 08:30 3.26 580 13700 (1993) 144 (1964) 1220 164 187 325 403 628 1120 1300 2550 3400
2026-05-10 07:30 3.26 580 13700 (1993) 144 (1964) 1220 164 187 325 403 628 1120 1300 2550 3400
2026-05-10 06:30 3.27 585 13700 (1993) 144 (1964) 1220 164 187 325 403 628 1120 1300 2550 3400
2026-05-10 05:30 3.27 585 13700 (1993) 144 (1964) 1220 164 187 325 403 628 1120 1300 2550 3400
2026-05-10 04:30 3.27 585 13700 (1993) 144 (1964) 1220 164 187 325 403 628 1120 1300 2550 3400
2026-05-10 03:30 3.27 585 13700 (1993) 144 (1964) 1220 164 187 325 403 628 1120 1300 2550 3400
2026-05-10 02:30 3.27 585 13700 (1993) 144 (1964) 1220 164 187 325 403 628 1120 1300 2550 3400
2026-05-10 01:30 3.28 589 13700 (1993) 144 (1964) 1220 164 187 325 403 628 1120 1300 2550 3400
2026-05-10 00:30 3.28 589 13700 (1993) 144 (1964) 1220 164 187 325 403 628 1120 1300 2550 3400
2026-05-09 23:30 3.28 589 13700 (1993) 144 (1964) 1220 164 187 325 403 628 1120 1300 2550 3400
2026-05-09 22:30 3.29 593 9850 (1995) 117 (1964) 1200 168 195 286 368 601 1200 1600 2860 5710
2026-05-09 21:30 3.29 593 9850 (1995) 117 (1964) 1200 168 195 286 368 601 1200 1600 2860 5710
2026-05-09 20:30 3.29 593 9850 (1995) 117 (1964) 1200 168 195 286 368 601 1200 1600 2860 5710
2026-05-09 19:30 3.29 593 9850 (1995) 117 (1964) 1200 168 195 286 368 601 1200 1600 2860 5710
2026-05-09 18:30 3.30 597 9850 (1995) 117 (1964) 1200 168 195 286 368 601 1200 1600 2860 5710
2026-05-09 17:30 3.30 597 9850 (1995) 117 (1964) 1200 168 195 286 368 601 1200 1600 2860 5710
2026-05-09 16:30 3.30 597 9850 (1995) 117 (1964) 1200 168 195 286 368 601 1200 1600 2860 5710
2026-05-09 15:30 3.31 601 9850 (1995) 117 (1964) 1200 168 195 286 368 601 1200 1600 2860 5710
2026-05-09 14:30 3.32 606 9850 (1995) 117 (1964) 1200 168 195 286 368 601 1200 1600 2860 5710
2026-05-09 13:30 3.31 601 9850 (1995) 117 (1964) 1200 168 195 286 368 601 1200 1600 2860 5710
2026-05-09 12:30 3.34 614 9850 (1995) 117 (1964) 1200 168 195 286 368 601 1200 1600 2860 5710
2026-05-09 11:30 3.35 619 9850 (1995) 117 (1964) 1200 168 195 286 368 601 1200 1600 2860 5710
2026-05-09 10:30 3.35 619 9850 (1995) 117 (1964) 1200 168 195 286 368 601 1200 1600 2860 5710
2026-05-09 09:30 3.36 623 9850 (1995) 117 (1964) 1200 168 195 286 368 601 1200 1600 2860 5710
2026-05-09 08:30 3.36 623 9850 (1995) 117 (1964) 1200 168 195 286 368 601 1200 1600 2860 5710
2026-05-09 07:30 3.36 623 9850 (1995) 117 (1964) 1200 168 195 286 368 601 1200 1600 2860 5710
2026-05-09 06:30 3.35 619 9850 (1995) 117 (1964) 1200 168 195 286 368 601 1200 1600 2860 5710
2026-05-09 05:30 3.35 619 9850 (1995) 117 (1964) 1200 168 195 286 368 601 1200 1600 2860 5710
2026-05-09 04:30 3.36 623 9850 (1995) 117 (1964) 1200 168 195 286 368 601 1200 1600 2860 5710
2026-05-09 03:30 3.36 623 9850 (1995) 117 (1964) 1200 168 195 286 368 601 1200 1600 2860 5710
2026-05-09 02:30 3.36 623 9850 (1995) 117 (1964) 1200 168 195 286 368 601 1200 1600 2860 5710
2026-05-09 01:30 3.36 623 9850 (1995) 117 (1964) 1200 168 195 286 368 601 1200 1600 2860 5710
2026-05-09 00:30 3.37 627 9850 (1995) 117 (1964) 1200 168 195 286 368 601 1200 1600 2860 5710
2026-05-08 23:30 3.38 632 9850 (1995) 117 (1964) 1200 168 195 286 368 601 1200 1600 2860 5710
2026-05-08 22:30 3.39 636 11300 (1961) 126 (1964) 1300 158 201 296 365 645 1340 1540 2670 6250
2026-05-08 21:30 3.40 640 11300 (1961) 126 (1964) 1300 158 201 296 365 645 1340 1540 2670 6250
2026-05-08 20:30 3.37 627 11300 (1961) 126 (1964) 1300 158 201 296 365 645 1340 1540 2670 6250
2026-05-08 19:30 3.38 632 11300 (1961) 126 (1964) 1300 158 201 296 365 645 1340 1540 2670 6250
2026-05-08 18:30 3.39 636 11300 (1961) 126 (1964) 1300 158 201 296 365 645 1340 1540 2670 6250
2026-05-08 17:30 3.40 640 11300 (1961) 126 (1964) 1300 158 201 296 365 645 1340 1540 2670 6250
2026-05-08 16:30 3.40 640 11300 (1961) 126 (1964) 1300 158 201 296 365 645 1340 1540 2670 6250
2026-05-08 15:30 3.41 645 11300 (1961) 126 (1964) 1300 158 201 296 365 645 1340 1540 2670 6250
2026-05-08 14:30 3.42 649 11300 (1961) 126 (1964) 1300 158 201 296 365 645 1340 1540 2670 6250
2026-05-08 13:30 3.43 654 11300 (1961) 126 (1964) 1300 158 201 296 365 645 1340 1540 2670 6250
2026-05-08 12:30 3.44 658 11300 (1961) 126 (1964) 1300 158 201 296 365 645 1340 1540 2670 6250
2026-05-08 11:30 3.42 649 11300 (1961) 126 (1964) 1300 158 201 296 365 645 1340 1540 2670 6250
2026-05-08 10:30 3.45 663 11300 (1961) 126 (1964) 1300 158 201 296 365 645 1340 1540 2670 6250
2026-05-08 09:30 3.46 667 11300 (1961) 126 (1964) 1300 158 201 296 365 645 1340 1540 2670 6250
2026-05-08 08:30 3.47 672 11300 (1961) 126 (1964) 1300 158 201 296 365 645 1340 1540 2670 6250
2026-05-08 07:30 3.47 672 11300 (1961) 126 (1964) 1300 158 201 296 365 645 1340 1540 2670 6250
2026-05-08 06:30 3.48 676 11300 (1961) 126 (1964) 1300 158 201 296 365 645 1340 1540 2670 6250
2026-05-08 05:30 3.48 676 11300 (1961) 126 (1964) 1300 158 201 296 365 645 1340 1540 2670 6250
2026-05-08 04:30 3.49 681 11300 (1961) 126 (1964) 1300 158 201 296 365 645 1340 1540 2670 6250
2026-05-08 03:30 3.49 681 11300 (1961) 126 (1964) 1300 158 201 296 365 645 1340 1540 2670 6250
2026-05-08 02:30 3.50 685 11300 (1961) 126 (1964) 1300 158 201 296 365 645 1340 1540 2670 6250
2026-05-08 01:30 3.51 690 11300 (1961) 126 (1964) 1300 158 201 296 365 645 1340 1540 2670 6250
2026-05-08 00:30 3.51 690 11300 (1961) 126 (1964) 1300 158 201 296 365 645 1340 1540 2670 6250
2026-05-07 23:30 3.52 695 11300 (1961) 126 (1964) 1300 158 201 296 365 645 1340 1540 2670 6250
2026-05-07 22:30 3.52 695 33400 (1961) 113 (1964) 1620 160 201 279 334 684 1520 1770 3440 5180
2026-05-07 21:30 3.53 699 33400 (1961) 113 (1964) 1620 160 201 279 334 684 1520 1770 3440 5180
2026-05-07 20:30 3.54 704 33400 (1961) 113 (1964) 1620 160 201 279 334 684 1520 1770 3440 5180
2026-05-07 19:30 3.54 704 33400 (1961) 113 (1964) 1620 160 201 279 334 684 1520 1770 3440 5180
2026-05-07 18:30 3.55 709 33400 (1961) 113 (1964) 1620 160 201 279 334 684 1520 1770 3440 5180
2026-05-07 17:30 3.56 713 33400 (1961) 113 (1964) 1620 160 201 279 334 684 1520 1770 3440 5180
2026-05-07 16:30 3.57 718 33400 (1961) 113 (1964) 1620 160 201 279 334 684 1520 1770 3440 5180
2026-05-07 15:30 3.57 718 33400 (1961) 113 (1964) 1620 160 201 279 334 684 1520 1770 3440 5180
2026-05-07 14:30 3.59 728 33400 (1961) 113 (1964) 1620 160 201 279 334 684 1520 1770 3440 5180
2026-05-07 13:30 3.61 737 33400 (1961) 113 (1964) 1620 160 201 279 334 684 1520 1770 3440 5180
2026-05-07 12:30 3.60 732 33400 (1961) 113 (1964) 1620 160 201 279 334 684 1520 1770 3440 5180
2026-05-07 11:30 3.63 747 33400 (1961) 113 (1964) 1620 160 201 279 334 684 1520 1770 3440 5180
2026-05-07 10:30 3.64 752 33400 (1961) 113 (1964) 1620 160 201 279 334 684 1520 1770 3440 5180
2026-05-07 09:30 3.66 761 33400 (1961) 113 (1964) 1620 160 201 279 334 684 1520 1770 3440 5180
2026-05-07 08:30 3.67 766 33400 (1961) 113 (1964) 1620 160 201 279 334 684 1520 1770 3440 5180
2026-05-07 07:30 3.68 771 33400 (1961) 113 (1964) 1620 160 201 279 334 684 1520 1770 3440 5180
2026-05-07 06:30 3.69 776 33400 (1961) 113 (1964) 1620 160 201 279 334 684 1520 1770 3440 5180
2026-05-07 05:30 3.70 781 33400 (1961) 113 (1964) 1620 160 201 279 334 684 1520 1770 3440 5180
2026-05-07 04:30 3.72 791 33400 (1961) 113 (1964) 1620 160 201 279 334 684 1520 1770 3440 5180
2026-05-07 03:30 3.73 796 33400 (1961) 113 (1964) 1620 160 201 279 334 684 1520 1770 3440 5180
2026-05-07 02:30 3.74 801 33400 (1961) 113 (1964) 1620 160 201 279 334 684 1520 1770 3440 5180
2026-05-07 01:30 3.75 806 33400 (1961) 113 (1964) 1620 160 201 279 334 684 1520 1770 3440 5180
2026-05-07 00:30 3.77 817 33400 (1961) 113 (1964) 1620 160 201 279 334 684 1520 1770 3440 5180
2026-05-06 23:30 3.78 822 33400 (1961) 113 (1964) 1620 160 201 279 334 684 1520 1770 3440 5180
2026-05-06 22:30 3.79 827 14600 (2022) 121 (1964) 1490 158 215 290 330 713 1270 1770 3250 7500
2026-05-06 21:30 3.81 837 14600 (2022) 121 (1964) 1490 158 215 290 330 713 1270 1770 3250 7500
2026-05-06 20:30 3.83 848 14600 (2022) 121 (1964) 1490 158 215 290 330 713 1270 1770 3250 7500
2026-05-06 19:30 3.85 858 14600 (2022) 121 (1964) 1490 158 215 290 330 713 1270 1770 3250 7500
2026-05-06 18:30 3.87 869 14600 (2022) 121 (1964) 1490 158 215 290 330 713 1270 1770 3250 7500
2026-05-06 17:30 3.89 879 14600 (2022) 121 (1964) 1490 158 215 290 330 713 1270 1770 3250 7500
2026-05-06 16:30 3.90 885 14600 (2022) 121 (1964) 1490 158 215 290 330 713 1270 1770 3250 7500
2026-05-06 15:30 3.91 890 14600 (2022) 121 (1964) 1490 158 215 290 330 713 1270 1770 3250 7500
2026-05-06 14:30 3.98 928 14600 (2022) 121 (1964) 1490 158 215 290 330 713 1270 1770 3250 7500
2026-05-06 13:30 3.59 728 14600 (2022) 121 (1964) 1490 158 215 290 330 713 1270 1770 3250 7500
2026-05-06 12:30 4.03 954 14600 (2022) 121 (1964) 1490 158 215 290 330 713 1270 1770 3250 7500
2026-05-06 11:30 4.11 991 14600 (2022) 121 (1964) 1490 158 215 290 330 713 1270 1770 3250 7500
2026-05-06 10:30 4.21 1040 14600 (2022) 121 (1964) 1490 158 215 290 330 713 1270 1770 3250 7500
2026-05-06 09:30 4.39 1130 14600 (2022) 121 (1964) 1490 158 215 290 330 713 1270 1770 3250 7500
2026-05-06 08:30 4.48 1180 14600 (2022) 121 (1964) 1490 158 215 290 330 713 1270 1770 3250 7500
2026-05-06 07:30 4.26 1060 14600 (2022) 121 (1964) 1490 158 215 290 330 713 1270 1770 3250 7500
2026-05-06 06:30 4.31 1090 14600 (2022) 121 (1964) 1490 158 215 290 330 713 1270 1770 3250 7500
2026-05-06 05:30 4.38 1130 14600 (2022) 121 (1964) 1490 158 215 290 330 713 1270 1770 3250 7500
2026-05-06 04:30 4.45 1160 14600 (2022) 121 (1964) 1490 158 215 290 330 713 1270 1770 3250 7500
2026-05-06 03:30 4.53 1210 14600 (2022) 121 (1964) 1490 158 215 290 330 713 1270 1770 3250 7500
2026-05-06 02:30 4.62 1250 14600 (2022) 121 (1964) 1490 158 215 290 330 713 1270 1770 3250 7500
2026-05-06 01:30 4.71 1300 14600 (2022) 121 (1964) 1490 158 215 290 330 713 1270 1770 3250 7500
2026-05-06 00:30 4.83 1370 14600 (2022) 121 (1964) 1490 158 215 290 330 713 1270 1770 3250 7500
2026-05-05 23:30 4.95 1440 14600 (2022) 121 (1964) 1490 158 215 290 330 713 1270 1770 3250 7500
2026-05-05 22:30 5.08 1520 52300 (2022) 128 (1981) 2090 167 210 284 337 690 1550 1770 3190 6980
2026-05-05 21:30 5.19 1590 52300 (2022) 128 (1981) 2090 167 210 284 337 690 1550 1770 3190 6980
2026-05-05 20:30 5.27 1650 52300 (2022) 128 (1981) 2090 167 210 284 337 690 1550 1770 3190 6980
2026-05-05 19:30 5.24 1630 52300 (2022) 128 (1981) 2090 167 210 284 337 690 1550 1770 3190 6980
2026-05-05 18:30 5.03 1490 52300 (2022) 128 (1981) 2090 167 210 284 337 690 1550 1770 3190 6980
2026-05-05 17:30 4.55 1220 52300 (2022) 128 (1981) 2090 167 210 284 337 690 1550 1770 3190 6980
2026-05-05 16:30 3.97 923 52300 (2022) 128 (1981) 2090 167 210 284 337 690 1550 1770 3190 6980
2026-05-05 15:30 3.70 781 52300 (2022) 128 (1981) 2090 167 210 284 337 690 1550 1770 3190 6980
2026-05-05 14:30 3.67 766 52300 (2022) 128 (1981) 2090 167 210 284 337 690 1550 1770 3190 6980
2026-05-05 13:30 3.68 771 52300 (2022) 128 (1981) 2090 167 210 284 337 690 1550 1770 3190 6980
2026-05-05 12:30 3.54 704 52300 (2022) 128 (1981) 2090 167 210 284 337 690 1550 1770 3190 6980
2026-05-05 11:30 3.19 552 52300 (2022) 128 (1981) 2090 167 210 284 337 690 1550 1770 3190 6980
2026-05-05 10:30 4.06 968 52300 (2022) 128 (1981) 2090 167 210 284 337 690 1550 1770 3190 6980
2026-05-05 09:30 3.21 560 52300 (2022) 128 (1981) 2090 167 210 284 337 690 1550 1770 3190 6980
2026-05-05 08:30 3.57 718 52300 (2022) 128 (1981) 2090 167 210 284 337 690 1550 1770 3190 6980
2026-05-05 07:30 3.57 718 52300 (2022) 128 (1981) 2090 167 210 284 337 690 1550 1770 3190 6980
2026-05-05 06:30 3.56 713 52300 (2022) 128 (1981) 2090 167 210 284 337 690 1550 1770 3190 6980
2026-05-05 05:30 3.56 713 52300 (2022) 128 (1981) 2090 167 210 284 337 690 1550 1770 3190 6980
2026-05-05 04:30 3.57 718 52300 (2022) 128 (1981) 2090 167 210 284 337 690 1550 1770 3190 6980
2026-05-05 03:30 3.58 723 52300 (2022) 128 (1981) 2090 167 210 284 337 690 1550 1770 3190 6980
2026-05-05 02:30 3.58 723 52300 (2022) 128 (1981) 2090 167 210 284 337 690 1550 1770 3190 6980
2026-05-05 01:30 3.57 718 52300 (2022) 128 (1981) 2090 167 210 284 337 690 1550 1770 3190 6980
2026-05-05 00:30 3.57 718 52300 (2022) 128 (1981) 2090 167 210 284 337 690 1550 1770 3190 6980
2026-05-04 23:30 3.57 718 52300 (2022) 128 (1981) 2090 167 210 284 337 690 1550 1770 3190 6980
2026-05-04 22:30 3.58 723 13400 (1990) 134 (1964) 1580 175 226 295 347 695 1640 2050 3900 6780
2026-05-04 21:30 3.59 728 13400 (1990) 134 (1964) 1580 175 226 295 347 695 1640 2050 3900 6780
2026-05-04 20:30 3.60 732 13400 (1990) 134 (1964) 1580 175 226 295 347 695 1640 2050 3900 6780
2026-05-04 19:30 3.60 732 13400 (1990) 134 (1964) 1580 175 226 295 347 695 1640 2050 3900 6780
2026-05-04 18:30 3.61 737 13400 (1990) 134 (1964) 1580 175 226 295 347 695 1640 2050 3900 6780
2026-05-04 17:30 3.68 771 13400 (1990) 134 (1964) 1580 175 226 295 347 695 1640 2050 3900 6780
2026-05-04 16:30 3.60 732 13400 (1990) 134 (1964) 1580 175 226 295 347 695 1640 2050 3900 6780
2026-05-04 15:30 3.49 681 13400 (1990) 134 (1964) 1580 175 226 295 347 695 1640 2050 3900 6780
2026-05-04 14:30 3.62 742 13400 (1990) 134 (1964) 1580 175 226 295 347 695 1640 2050 3900 6780
2026-05-04 13:30 3.66 761 13400 (1990) 134 (1964) 1580 175 226 295 347 695 1640 2050 3900 6780
2026-05-04 12:30 3.68 771 13400 (1990) 134 (1964) 1580 175 226 295 347 695 1640 2050 3900 6780
2026-05-04 11:30 3.74 801 13400 (1990) 134 (1964) 1580 175 226 295 347 695 1640 2050 3900 6780
2026-05-04 10:30 3.80 832 13400 (1990) 134 (1964) 1580 175 226 295 347 695 1640 2050 3900 6780
2026-05-04 09:30 3.44 658 13400 (1990) 134 (1964) 1580 175 226 295 347 695 1640 2050 3900 6780
2026-05-04 08:30 3.69 776 13400 (1990) 134 (1964) 1580 175 226 295 347 695 1640 2050 3900 6780
2026-05-04 07:30 3.70 781 13400 (1990) 134 (1964) 1580 175 226 295 347 695 1640 2050 3900 6780
2026-05-04 06:30 3.70 781 13400 (1990) 134 (1964) 1580 175 226 295 347 695 1640 2050 3900 6780
2026-05-04 05:30 3.71 786 13400 (1990) 134 (1964) 1580 175 226 295 347 695 1640 2050 3900 6780
2026-05-04 04:30 3.71 786 13400 (1990) 134 (1964) 1580 175 226 295 347 695 1640 2050 3900 6780
2026-05-04 03:30 3.71 786 13400 (1990) 134 (1964) 1580 175 226 295 347 695 1640 2050 3900 6780
2026-05-04 02:30 3.72 791 13400 (1990) 134 (1964) 1580 175 226 295 347 695 1640 2050 3900 6780
2026-05-04 01:30 3.72 791 13400 (1990) 134 (1964) 1580 175 226 295 347 695 1640 2050 3900 6780
2026-05-04 00:30 3.72 791 13400 (1990) 134 (1964) 1580 175 226 295 347 695 1640 2050 3900 6780
2026-05-03 23:30 3.73 796 13400 (1990) 134 (1964) 1580 175 226 295 347 695 1640 2050 3900 6780
2026-05-03 22:30 3.74 801 31800 (1990) 152 (1981) 1750 176 226 306 367 739 1570 2360 3620 6160
2026-05-03 21:30 3.75 806 31800 (1990) 152 (1981) 1750 176 226 306 367 739 1570 2360 3620 6160
2026-05-03 20:30 3.76 811 31800 (1990) 152 (1981) 1750 176 226 306 367 739 1570 2360 3620 6160
2026-05-03 19:30 3.78 822 31800 (1990) 152 (1981) 1750 176 226 306 367 739 1570 2360 3620 6160
2026-05-03 18:30 3.79 827 31800 (1990) 152 (1981) 1750 176 226 306 367 739 1570 2360 3620 6160
2026-05-03 17:30 3.80 832 31800 (1990) 152 (1981) 1750 176 226 306 367 739 1570 2360 3620 6160
2026-05-03 16:30 3.81 837 31800 (1990) 152 (1981) 1750 176 226 306 367 739 1570 2360 3620 6160
2026-05-03 15:30 3.82 842 31800 (1990) 152 (1981) 1750 176 226 306 367 739 1570 2360 3620 6160
2026-05-03 14:30 3.81 837 31800 (1990) 152 (1981) 1750 176 226 306 367 739 1570 2360 3620 6160
2026-05-03 13:30 3.85 858 31800 (1990) 152 (1981) 1750 176 226 306 367 739 1570 2360 3620 6160
2026-05-03 12:30 3.85 858 31800 (1990) 152 (1981) 1750 176 226 306 367 739 1570 2360 3620 6160
2026-05-03 11:30 3.87 869 31800 (1990) 152 (1981) 1750 176 226 306 367 739 1570 2360 3620 6160
2026-05-03 10:30 3.88 874 31800 (1990) 152 (1981) 1750 176 226 306 367 739 1570 2360 3620 6160
2026-05-03 09:30 3.89 879 31800 (1990) 152 (1981) 1750 176 226 306 367 739 1570 2360 3620 6160
2026-05-03 08:30 3.90 885 31800 (1990) 152 (1981) 1750 176 226 306 367 739 1570 2360 3620 6160
2026-05-03 07:30 3.91 890 31800 (1990) 152 (1981) 1750 176 226 306 367 739 1570 2360 3620 6160
2026-05-03 06:30 3.91 890 31800 (1990) 152 (1981) 1750 176 226 306 367 739 1570 2360 3620 6160
2026-05-03 05:30 3.91 890 31800 (1990) 152 (1981) 1750 176 226 306 367 739 1570 2360 3620 6160
2026-05-03 04:30 3.92 896 31800 (1990) 152 (1981) 1750 176 226 306 367 739 1570 2360 3620 6160
2026-05-03 03:30 3.93 901 31800 (1990) 152 (1981) 1750 176 226 306 367 739 1570 2360 3620 6160
2026-05-03 02:30 3.93 901 31800 (1990) 152 (1981) 1750 176 226 306 367 739 1570 2360 3620 6160
2026-05-03 01:30 3.94 907 31800 (1990) 152 (1981) 1750 176 226 306 367 739 1570 2360 3620 6160
2026-05-03 00:30 3.94 907 31800 (1990) 152 (1981) 1750 176 226 306 367 739 1570 2360 3620 6160
2026-05-02 23:30 3.96 917 31800 (1990) 152 (1981) 1750 176 226 306 367 739 1570 2360 3620 6160

A total of 186 rows are displayed for years 1956 through 2025.